Tuxtla Gutierrez, Mexico

12:41 PM CDT on April 19, 2018 (GMT -0500)
Francisco Sarabia

Weather History for MMTG - December, 2012

Change the Weather History Date:

Thursday, December 13, 2012

  Actual Average Record
Temperature  
Mean Temperature 77 °F -  
Max Temperature 86 °F 72 °F 93 °F (2015)
Min Temperature 66 °F 58 °F 50 °F (1997)
Cooling Degree Days 12    
Growing Degree Days 27 (Base 50)    
Moisture  
Dew Point 64 °F    
Average Humidity 69    
Maximum Humidity 100    
Minimum Humidity 43    
Precipitation  
Precipitation 0.00 in - - ()
Sea Level Pressure  
Sea Level Pressure 30.03 in    
Wind  
Wind Speed 5 mph ()    
Max Wind Speed 21 mph    
Max Gust Speed 23 mph    
Visibility 7.8 miles    
Events      
Averages and records for this station are not official NWS values.
T = Trace of Precipitation, MM = Missing Value Source: Averaged Metar Reports

Daily Weather History Graph

Daily Weather History Graph

Search for Another Location

Airport or City:

Astronomy

Dec. 13, 2012 Rise Set
Actual Time 6:32 AM CST 5:41 PM CST
Civil Twilight 6:09 AM CST 6:04 PM CST
Nautical Twilight 5:42 AM CST 6:31 PM CST
Astronomical Twilight 5:15 AM CST 6:58 PM CST
Moon 6:44 AM CST (12/13) 6:20 PM CST (12/13)
Length of Visible Light 11h 55m
Length of Day
11h 08m
New Moon, 0% of the Moon is Illuminated
Dec 13
New Moon
Dec 19
First Quarter
Dec 28
Full
Jan 4
Last Quarter
Jan 11
New

Hourly Weather History & Observations

Time (CST) Temp. Heat Index Dew Point Humidity Pressure Visibility Wind Dir Wind Speed Gust Speed Precip Events Conditions
5:30 AM 69 °F - 65 °F 84% 30.02 in 9 mi Calm Calm - -   Overcast
5:41 AM 62.6 °F - 62.6 °F 100% 30.02 in 5.0 mi NW 3.5 mph - N/A   Clear
6:40 AM 62.6 °F - 60.8 °F 94% 30.11 in 7.0 mi WSW 3.5 mph - N/A   Scattered Clouds
7:46 AM 66.2 °F - 62.6 °F 88% 30.12 in 7.0 mi SSW 3.5 mph - N/A   Clear
8:40 AM 71.6 °F - 64.4 °F 78% 30.05 in 7.0 mi Calm Calm - N/A   Clear
8:45 AM 74 °F - 66 °F 70% 30.06 in 9 mi NW 4.5 mph - -   Scattered Clouds
9:43 AM 77.0 °F - 64.4 °F 65% 30.13 in 8.0 mi NW 5.8 mph - N/A   Partly Cloudy
10:47 AM 82.4 °F 83.9 °F 64.4 °F 54% 30.12 in 8.0 mi NNW 4.6 mph - N/A   Scattered Clouds
11:45 AM 80 °F - 67 °F 57% 30.02 in 9 mi WNW 6.7 mph - -   Partly Cloudy
11:45 AM 82.4 °F 83.4 °F 62.6 °F 51% 30.00 in 10.0 mi NW 4.6 mph - N/A   Scattered Clouds
12:48 PM 86.0 °F 86.1 °F 60.8 °F 43% 30.03 in 10.0 mi West 12.7 mph - N/A   Scattered Clouds
1:42 PM 84.2 °F 85.0 °F 62.6 °F 48% 30.01 in 10.0 mi NW 17.3 mph - N/A   Scattered Clouds
2:45 PM 80 °F - 68 °F 59% 29.94 in 9 mi WNW 6.7 mph - -   Partly Cloudy
2:45 PM 84.2 °F 85.6 °F 64.4 °F 51% 29.90 in 6.0 mi NNW 18.4 mph - N/A   Partly Cloudy
3:40 PM 80.6 °F 82.3 °F 64.4 °F 58% 29.98 in 6.0 mi NW 11.5 mph 23.0 mph N/A   Scattered Clouds
4:48 PM 78.8 °F - 64.4 °F 61% 29.99 in 7.0 mi NW 20.7 mph - N/A   Scattered Clouds
6:52 PM 75.2 °F - 64.4 °F 69% 30.01 in 7.0 mi NW 11.5 mph - N/A   Partly Cloudy
7:52 PM 73.4 °F - 64.4 °F 73% 30.04 in 7.0 mi NW 9.2 mph - N/A   Clear
8:52 PM 71.6 °F - 64.4 °F 78% 29.98 in 7.0 mi NW 5.8 mph - N/A   Clear
9:00 PM 73 °F - 67 °F 78%  in 9 mi Calm Calm - -  
9:45 PM 69.8 °F - 62.6 °F 78% 30.08 in 7.0 mi SSW 4.6 mph - N/A   Clear
10:53 PM 66.2 °F - 62.6 °F 88% 30.09 in 8.0 mi Calm Calm - N/A   Clear